Weather History for Yakima, WA

Change the Weather History Date:

Monday, December 9, 2013

  Actual Average Record
Temperature  
Mean Temperature 15 °F 29 °F  
Max Temperature 26 °F 37 °F 57 °F (1956)
Min Temperature 3 °F 22 °F -3 °F (2009)
Degree Days  
Heating Degree Days 50 36  
Month to date heating degree days 379 312  
Since 1 July heating degree days 1795 1845  
Cooling Degree Days 0 0  
Month to date cooling degree days 0 0  
Year to date cooling degree days 970 472  
Moisture  
Dew Point 3 °F    
Average Humidity 64    
Maximum Humidity 86    
Minimum Humidity 42    
Precipitation  
Precipitation 0.00 in 0.05 in 1.37 in (1987)
Month to date precipitation 0.32 0.44  
Year to date precipitation 5.49 7.16  
Snow  
Snow 0.00 in 0.20 in 2.30 in (1987)
Month to date snowfall T 2.5  
Year to date snowfall 1.1 14.7  
Since 1 July snowfall T 6.1  
Snow Depth 0.00 in    
Sea Level Pressure  
Sea Level Pressure 30.52 in    
Wind  
Wind Speed 3 mph (WSW)    
Max Wind Speed 8 mph    
Max Gust Speed 9 mph    
Visibility 10 miles    
Events      
T = Trace of Precipitation, MM = Missing Value Source: NWS Daily Summary

Daily Weather History Graph

Daily Weather History Graph

Search for Another Location

Airport:

Trip Planner

Search our weather history database for the weather conditions in past years. The results will help you decide how hot, cold, wet, or windy it might be!

Date:

Astronomy

Dec. 09, 2013 Rise Set
Actual Time 7:34 AM PST 4:14 PM PST
Civil Twilight 6:59 AM PST 4:49 PM PST
Nautical Twilight 6:21 AM PST 5:27 PM PST
Astronomical Twilight 5:44 AM PST 6:04 PM PST
Moon 12:08 PM PST (12/9) No Moon Set
Length of Visible Light 9h 49m
Length of Day
8h 40m
First Quarter, 52% of the Moon is Illuminated
Dec 9
First Quarter
Dec 17
Full
Dec 25
Last Quarter
Jan 1
New
Jan 7
First Quarter

Hourly Weather History & Observations

Time (PST) Temp. Windchill Dew Point Humidity Pressure Visibility Wind Dir Wind Speed Gust Speed Precip Events Conditions
12:53 AM 6.1 °F - -0.9 °F 73% 30.58 in 10.0 mi Calm Calm - N/A   Clear
1:53 AM 3.9 °F -3.4 °F -2.0 °F 76% 30.58 in 10.0 mi SSW 3.5 mph - N/A   Clear
2:53 AM 5.0 °F -6.9 °F -0.0 °F 80% 30.57 in 10.0 mi WNW 6.9 mph - N/A   Clear
3:53 AM 3.9 °F -5.3 °F -0.9 °F 80% 30.55 in 10.0 mi WNW 4.6 mph - N/A   Clear
4:53 AM 3.9 °F -3.4 °F -0.9 °F 80% 30.55 in 10.0 mi SSE 3.5 mph - N/A   Clear
5:53 AM 5.0 °F -4.1 °F -0.9 °F 76% 30.54 in 10.0 mi WSW 4.6 mph - N/A   Clear
6:53 AM 5.0 °F -5.6 °F -0.0 °F 80% 30.54 in 10.0 mi WNW 5.8 mph - N/A   Clear
7:53 AM 6.1 °F -0.9 °F -0.0 °F 76% 30.55 in 10.0 mi Variable 3.5 mph - N/A   Partly Cloudy
8:53 AM 10.0 °F - 3.0 °F 73% 30.56 in 9.0 mi Calm Calm - N/A   Clear
9:53 AM 14.0 °F - 3.9 °F 64% 30.56 in 9.0 mi Calm Calm - N/A   Scattered Clouds
10:53 AM 17.1 °F 11.7 °F 5.0 °F 59% 30.54 in 10.0 mi SE 3.5 mph - N/A   Partly Cloudy
11:53 AM 21.0 °F 16.2 °F 3.9 °F 48% 30.53 in 10.0 mi ESE 3.5 mph - N/A   Clear
12:53 PM 23.0 °F 14.7 °F 5.0 °F 46% 30.50 in 10.0 mi SE 6.9 mph - N/A   Partly Cloudy
1:53 PM 25.0 °F 19.3 °F 5.0 °F 43% 30.50 in 10.0 mi East 4.6 mph - N/A   Clear
2:53 PM 25.0 °F 19.3 °F 6.1 °F 45% 30.50 in 10.0 mi East 4.6 mph - N/A   Scattered Clouds
3:53 PM 23.0 °F - 6.1 °F 48% 30.51 in 10.0 mi Calm Calm - N/A   Scattered Clouds
4:53 PM 19.0 °F - 5.0 °F 54% 30.51 in 10.0 mi Calm Calm - N/A   Clear
5:53 PM 17.1 °F - 5.0 °F 59% 30.48 in 10.0 mi Calm Calm - N/A   Clear
6:53 PM 12.9 °F - 3.9 °F 67% 30.50 in 10.0 mi Calm Calm - N/A   Clear
7:53 PM 10.9 °F 2.9 °F 3.9 °F 73% 30.48 in 9.0 mi NW 4.6 mph - N/A   Clear
8:53 PM 10.9 °F 4.7 °F 5.0 °F 77% 30.47 in 9.0 mi WSW 3.5 mph - N/A   Clear
9:53 PM 9.0 °F 0.6 °F 3.0 °F 77% 30.46 in 8.0 mi West 4.6 mph - N/A   Clear
10:53 PM 9.0 °F 2.4 °F 3.0 °F 77% 30.45 in 8.0 mi NW 3.5 mph - N/A   Clear
11:53 PM 10.0 °F 1.8 °F 3.9 °F 76% 30.45 in 8.0 mi West 4.6 mph - N/A   Clear